TimeEST,TemperatureF,Dew PointF,Humidity,Sea Level PressureIn,VisibilityMPH,Wind Direction,Wind SpeedMPH,Gust SpeedMPH,PrecipitationIn,Events,Conditions,WindDirDegrees,DateUTC
12:54 AM,36.0,25.0,64,29.93,10.0,NNW,11.5,-,N/A,,Overcast,340,2012-11-09 05:54:00
1:28 AM,35.6,24.8,65,29.91,10.0,NNW,9.2,18.4,N/A,,Overcast,330,2012-11-09 06:28:00
1:54 AM,35.1,25.0,67,29.94,10.0,Variable,5.8,-,N/A,,Overcast,0,2012-11-09 06:54:00
2:54 AM,32.0,23.0,69,29.95,10.0,NW,4.6,-,N/A,,Clear,310,2012-11-09 07:54:00
3:54 AM,30.9,21.9,69,29.96,10.0,WNW,4.6,-,N/A,,Clear,290,2012-11-09 08:54:00
4:54 AM,30.0,21.9,72,29.99,10.0,West,5.8,-,N/A,,Clear,280,2012-11-09 09:54:00
5:54 AM,30.0,21.9,72,29.99,10.0,WNW,3.5,-,N/A,,Clear,300,2012-11-09 10:54:00
6:54 AM,30.0,23.0,75,30.02,10.0,NW,4.6,-,N/A,,Clear,310,2012-11-09 11:54:00
7:54 AM,32.0,24.1,73,30.04,10.0,NW,4.6,-,N/A,,Clear,310,2012-11-09 12:54:00
8:54 AM,34.0,25.0,70,30.06,10.0,NW,5.8,-,N/A,,Clear,310,2012-11-09 13:54:00
9:54 AM,37.0,25.0,62,30.07,10.0,WNW,5.8,-,N/A,,Clear,300,2012-11-09 14:54:00
10:54 AM,39.0,24.1,55,30.06,10.0,West,8.1,-,N/A,,Clear,270,2012-11-09 15:54:00
11:54 AM,42.1,21.9,45,30.04,10.0,West,5.8,-,N/A,,Clear,270,2012-11-09 16:54:00
12:54 PM,44.1,19.0,37,30.04,10.0,WNW,10.4,-,N/A,,Scattered Clouds,290,2012-11-09 17:54:00
1:54 PM,46.0,19.0,34,30.04,10.0,West,9.2,-,N/A,,Clear,280,2012-11-09 18:54:00
2:54 PM,46.9,21.0,36,30.05,10.0,West,9.2,-,N/A,,Clear,280,2012-11-09 19:54:00
3:54 PM,44.1,21.9,42,30.06,10.0,WSW,3.5,-,N/A,,Clear,250,2012-11-09 20:54:00
4:54 PM,42.1,21.9,45,30.08,10.0,WSW,8.1,-,N/A,,Clear,240,2012-11-09 21:54:00
5:54 PM,42.1,23.0,47,30.10,10.0,WNW,4.6,-,N/A,,Mostly Cloudy,290,2012-11-09 22:54:00
6:54 PM,42.1,27.0,55,30.11,10.0,WSW,6.9,-,N/A,,Overcast,240,2012-11-09 23:54:00
7:54 PM,42.1,30.0,62,30.12,10.0,WSW,8.1,-,N/A,,Overcast,250,2012-11-10 00:54:00
8:54 PM,42.1,33.1,70,30.13,10.0,WSW,9.2,-,N/A,,Overcast,240,2012-11-10 01:54:00
9:54 PM,41.0,35.1,79,30.13,10.0,West,5.8,-,N/A,,Overcast,270,2012-11-10 02:54:00
10:54 PM,41.0,35.1,79,30.14,10.0,Calm,Calm,-,N/A,,Overcast,0,2012-11-10 03:54:00
11:54 PM,41.0,35.1,79,30.14,10.0,Calm,Calm,-,N/A,,Overcast,0,2012-11-10 04:54:00